Location: Mount Eden
(37.6360°N, 122.1000°W)
Time: 23:03:21
(UTC+00:00)

Daily predictions for brighter satellites

Satellite Brightness Start Highest point End
(mag) Time Altitude Azimuth Time Altitude Azimuth Time Altitude Azimuth
Unknown 3.4 12:04:46 68° WNW 12:05:02 71° NW 12:09:04 10° NE
Unknown 3.4 12:05:11 68° WSW 12:05:41 84° NW 12:09:50 10° NE
Unknown 3.5 12:05:36 66° SW 12:06:09 89° NNW 12:10:18 10° NE
NOSS 3-2 (A) 4.0 12:05:38 32° WNW 12:06:59 36° NW 12:12:51 10° NNE
Unknown 4.3 12:07:29 36° NW 12:07:29 36° NW 12:11:01 10° NNE
NOSS 3-2 (C) 3.6 12:05:49 40° WSW 12:07:34 53° NW 12:13:51 10° NNE
Unknown 3.5 12:08:06 62° SW 12:08:46 88° NW 12:12:55 10° NE
Unknown 3.5 12:11:18 57° WSW 12:12:06 82° NW 12:16:15 10° NE
Cosmos 1707 Rocket 3.6 12:11:37 46° SW 12:12:37 58° W 12:17:00 10° N
Cosmos 1656 Rocket 4.1 12:07:32 13° S 12:12:38 62° ESE 12:18:14 10° NNE
MSX 4.0 12:07:37 10° NNE 12:13:23 73° ESE 12:19:06 10° S
Unknown 3.5 12:12:52 54° WSW 12:13:44 80° NW 12:17:54 10° NE
Unknown 3.5 12:14:28 52° WSW 12:15:24 77° NW 12:19:33 10° NE
ARIANE 5 R/B 4.5 12:13:33 10° NNW 12:15:11 13° NW 12:15:11 13° NW
Unknown 3.5 12:16:06 49° WSW 12:17:06 74° NW 12:21:14 10° NE
Cosmos 2195 Rocket 4.4 12:10:56 10° S 12:17:15 83° W 12:23:35 10° N
ATLAS 3B R/B 2.6 12:15:07 30° SW 12:18:35 65° NW 12:25:07 10° NNE
COSMOS 2487 3.9 12:19:19 10° N 12:22:38 40° ENE 12:25:54 10° SE
Unknown 3.6 12:22:28 41° WSW 12:23:44 65° NW 12:27:51 10° NE
Cosmos 44 3.4 12:20:17 21° SSW 12:23:46 80° ESE 12:28:41 10° NNE
H-2A R/B 2.2 12:20:02 10° N 12:23:49 61° WNW 12:25:22 33° SW
Unknown 3.7 12:24:05 39° WSW 12:25:25 62° NW 12:29:32 10° NE
Cosmos 2344 4.3 12:23:08 24° W 12:26:49 37° NW 12:34:16 10° NNE
Unknown 3.7 12:25:40 37° WSW 12:27:03 60° NW 12:31:10 10° NE
Unknown 3.8 12:27:17 36° WSW 12:28:44 58° NW 12:32:49 10° NE
Cosmos 1733 Rocket 3.2 12:24:52 10° N 12:29:20 77° E 12:33:46 10° S
Unknown 3.8 12:28:53 34° W 12:30:24 56° NW 12:34:30 10° NE
IDEFIX/ARIANE 42P 2.8 12:25:46 10° N 12:30:51 50° WNW 12:34:38 18° SW
PSLV R/B 4.1 12:28:47 10° N 12:32:51 38° WNW 12:34:35 26° WSW
Unknown 3.9 12:32:02 31° W 12:33:42 53° NW 12:37:46 10° NE
Starlink (trailer) 3.9 12:33:39 30° W 12:35:23 51° NW 12:39:26 10° NE
Cosmos 1428 Rocket 4.5 12:29:43 10° S 12:36:02 80° W 12:42:21 10° N
Unknown 4.0 12:35:15 29° W 12:37:03 49° NW 12:41:05 10° NE
Unknown 4.0 12:36:51 27° W 12:38:43 48° NW 12:42:45 10° NE
Cosmos 1092 Rocket 4.3 12:34:49 14° SW 12:39:51 42° WNW 12:45:39 10° N
PAYLOAD A 3.7 12:36:55 10° N 12:41:42 74° WNW 12:46:22 10° SSW
Cosmos 1125 Rocket 3.8 12:37:16 10° NNW 12:42:18 45° WSW 12:47:19 10° S
USA 81 4.0 12:38:02 10° SSW 12:43:16 68° W 12:48:34 10° N
Unknown 4.2 12:43:16 23° W 12:45:25 42° NW 12:49:23 10° NE
SeaSat 1 3.6 12:41:43 10° N 12:45:47 26° NW 12:48:09 18° W
SL-4 R/B 4.3 12:44:39 10° NNW 12:46:54 16° NNE 12:49:14 10° ENE
Unknown 4.3 12:44:49 22° W 12:47:02 41° NW 12:50:59 10° NE
Unknown 4.3 12:45:40 21° W 12:47:55 40° NW 12:51:51 10° NE
Meteor PRIRODA 4.2 12:46:24 10° NNE 12:50:03 61° E 12:53:42 10° S
Cosmos 1315 Rocket 2.9 12:46:14 10° S 12:50:20 85° ESE 12:54:30 10° N
Unknown 4.4 12:48:03 20° W 12:50:24 39° NW 12:54:19 10° NE
Centaur AC-119 4.3 12:47:44 14° SW 12:50:41 29° SSE 13:00:22 10° ESE
Cosmos 1943 Rocket 3.4 12:48:56 17° W 12:51:25 23° WNW 12:55:45 10° N
Unknown 4.5 12:49:46 19° W 12:52:12 36° NW 12:56:03 10° NNE
ISS -3.1 12:50:30 20° W 12:52:14 34° SW 12:55:18 10° SSE
Cosmos 1340 3.8 12:49:02 10° N 12:52:43 48° ENE 12:56:22 10° SSE
Cosmos 2242 Rocket 3.6 12:48:13 10° S 12:52:46 80° W 12:57:19 10° N
BREEZE-M DEB (TANK) 4.1 12:50:00 15° W 12:53:16 28° NW 12:55:47 10° NNE
Unknown 4.4 12:50:55 19° W 12:53:24 37° NW 12:57:16 10° NE
CZ-2C R/B 2.4 12:49:00 10° N 12:53:51 71° WNW 12:58:49 10° SSW
Meteor 1-5 Rocket 4.1 12:52:50 10° NNW 12:58:14 72° W 13:03:47 10° S
CENTAUR R/B 3.3 12:59:45 14° WSW 13:04:23 34° NW 13:10:34 10° NNE
Centaur D-1AR AC-36 4.3 12:59:41 10° SW 13:05:11 30° SSE 13:28:23 10° ESE
Cosmos 1703 Rocket 3.8 13:02:31 10° S 13:06:58 76° E 13:11:24 10° N
Atlas Centaur 2 3.4 13:02:01 13° WSW 13:08:38 50° S 13:16:44 10° ESE
Lacrosse 5 4.3 13:06:45 10° NNW 13:10:27 20° NNE 13:14:08 10° ENE
ALOS 4.1 13:07:44 10° NNE 13:12:02 36° E 13:16:19 10° SSE
Cosmos 1400 Rocket 4.3 13:10:56 10° WSW 13:13:31 17° WNW 13:16:11 10° NNW
Cosmos 773 Rocket 4.0 13:08:32 10° SSW 13:13:41 64° WNW 13:18:49 10° NNE
Lacrosse 5 rocket 1.7 13:09:38 10° NW 13:13:57 78° NE 13:18:28 10° SE
CZ-3B R/B 2.7 13:16:07 10° SSW 13:17:23 12° S 13:18:57 10° SSE
Meteor 1-27 Rocket 4.1 13:11:54 10° SSW 13:17:36 49° WNW 13:23:16 10° N
Cosmos 1500 3.5 13:16:46 10° NNW 13:20:19 42° W 13:23:51 10° SSW
GPS 2-04 Rocket1 4.0 13:20:26 10° W 13:23:48 25° SSW 13:27:05 10° SSE
Cosmos 44 Rocket 3.7 13:19:30 10° SSW 13:24:32 72° ESE 13:29:30 10° NE
CZ-4B R/B 3.9 13:22:20 10° N 13:26:22 33° WNW 13:30:23 10° SW
Timation 2 Rocket 3.9 13:21:53 10° NNW 13:27:54 75° WSW 13:33:50 10° SSE
Cosmos 1553 Rocket 4.2 13:21:57 10° NNW 13:27:58 50° W 13:33:53 10° SSW
